This demonstration page uses our WeatherBlox Daily Observations layout. Learn more.

Left ArrowRight Arrow

39.29038, -76.61219

Hourly Observations for March 28, 2018

Temp ( °F °C ) Dew Point ( °F °C ) Humidity (%) Winds ( mph kmh ) Pressure ( in mb ) Visibility ( mi km ) Precip ( " mm )
12:54 am 00:54 undefined 44 6.7 37 2.8 76 76 undefined N/A 30.19 1022 N/A 0.00 0.00
1:54 am 01:54 undefined 44 6.7 37 2.8 76 76 undefined N/A 30.16 1021 N/A 0.00 0.00
2:54 am 02:54 undefined 44 6.7 37 2.8 76 76 undefined N/A 30.13 1020 N/A 0.00 0.00
3:54 am 03:54 undefined 43 6.1 39 3.9 86 86 undefined N/A 30.11 1020 N/A 0.01 0.25
4:54 am 04:54 undefined 43 6.1 40 4.4 89 89 undefined N/A 30.08 1019 N/A 0.00 0.00
5:54 am 05:54 undefined 43 6.1 40 4.4 89 89 undefined N/A 30.09 1019 N/A 0.00 0.00
6:54 am 06:54 undefined 43 6.1 40 4.4 89 89 undefined N/A 30.09 1019 N/A 0.00 0.00
7:54 am 07:54 undefined 44 6.7 40 4.4 85 85 undefined N/A 30.09 1019 N/A 0.00 0.00
8:54 am 08:54 undefined 45 7.2 41 5 86 86 undefined N/A 30.07 1018 N/A 0.00 0.00
9:54 am 09:54 undefined 46 7.8 41 5 83 83 undefined N/A 30.07 1018 N/A 0.00 0.00
10:54 am 10:54 undefined 48 8.9 41 5 77 77 undefined N/A 30.08 1019 N/A 0.00 0.00
11:54 am 11:54 undefined 50 10 42 5.6 74 74 undefined N/A 30.07 1018 N/A 0.00 0.00
12:54 pm 12:54 undefined 52 11.1 44 6.7 75 75 undefined N/A 30.04 1017 N/A 0.00 0.00
1:54 pm 13:54 undefined 52 11.1 43 6.1 72 72 undefined N/A 30.04 1017 N/A 0.00 0.00
2:54 pm 14:54 undefined 49 9.4 45 7.2 86 86 undefined N/A 30.03 1017 N/A 0.01 0.25
3:54 pm 15:54 undefined 49 9.4 46 7.8 90 90 undefined N/A 30.02 1017 N/A 0.00 0.00
4:54 pm 16:54 undefined 50 10 47 8.3 89 89 undefined N/A 30.01 1016 N/A 0.02 0.51
5:54 pm 17:54 undefined 49 9.4 46 7.8 90 90 undefined N/A 30.01 1016 N/A 0.02 0.51
6:54 pm 18:54 undefined 49 9.4 46 7.8 90 90 undefined N/A 30.04 1017 N/A 0.00 0.00
7:54 pm 19:54 undefined 49 9.4 46 7.8 90 90 undefined N/A 30.03 1017 N/A 0.00 0.00
8:54 pm 20:54 undefined 49 9.4 46 7.8 90 90 undefined N/A 30.04 1017 N/A 0.00 0.00
9:54 pm 21:54 undefined 50 10 47 8.3 89 89 undefined N/A 30.05 1018 N/A 0.00 0.00
10:54 pm 22:54 undefined 50 10 47 8.3 89 89 undefined N/A 30.05 1018 N/A 0.00 0.00
11:54 pm 23:54 undefined 50 10 47 8.3 89 89 undefined N/A 30.05 1018 N/A 0.00 0.00

Powered by AerisWeather